Regional Weather Roundup
Issued by NWS Cleveland, OH

Home | Current Version | Previous Version | Text Only | Print | Product List | Glossary Off
Versions: 1 2 3 4 5 6 7 8 9 10 11 12 13 14 15 16 17 18 19 20 21 22 23 24 25 26 27 28 29 30 31 32 33 34 35 36 37 38 39 40 41 42 43 44 45 46 47 48 49 50

000
ASUS41 KCLE 030210
RWRCLE
NATIONAL WEATHER SERVICE CLEVELAND, OH
1000 PM EDT WED SEP 02 2015

NOTE: "FAIR" INDICATES FEW OR NO CLOUDS BELOW 12,000 FEET WITH NO
SIGNIFICANT WEATHER AND/OR OBSTRUCTIONS TO VISIBILITY.

OHZ001>008-015>018-024>027-034-035-043-044-030300-
   NORTHWEST OHIO

CITY           SKY/WX    TMP DP  RH WIND       PRES   REMARKS
DEFIANCE       CLEAR     75  68  78 CALM      30.01R
FINDLAY        PTCLDY    75  70  84 S6        30.01R
TOLEDO EXPRESS MOCLDY    74  72  93 CALM      30.00R
TOLEDO EXEC    CLEAR     75  70  84 CALM      30.00R
LIMA           PTCLDY    74  68  81 CALM      30.03R
$$

OHZ009>014-019>023-028>033-038-089-030300-
   NORTHEAST OHIO

CITY           SKY/WX    TMP DP  RH WIND       PRES   REMARKS
CLE-HOPKINS    MOCLDY    76  67  73 SE3       30.01S
CLE-LAKEFRONT  CLOUDY    76  69  79 SW7       29.98R
CUY CO. ARPT   CLOUDY    77  70  78 W9        30.00R
LORAIN-ELYRIA  PTCLDY    74  70  87 CALM      30.00R
ASHTABULA      PTCLDY    70  69  97 CALM      30.00F FOG
AKRON-CANTON   PTCLDY    77  68  73 CALM      30.02S
WOOSTER        MOCLDY    72  68  87 CALM      30.03R
MANSFIELD      CLOUDY    75  67  76 SW8       30.04R
YOUNGSTOWN     MOCLDY    73  68  84 CALM      30.01S
$$

OHZ042-051>053-060>062-070>072-077>081-030300-
  SOUTHWEST OHIO

CITY           SKY/WX    TMP DP  RH WIND       PRES   REMARKS
CINC-COVINGTON CLEAR     77  67  71 S5        30.05R
CINC-LUNKEN    CLEAR     72  69  90 NE3       30.04R
HAMILTON       PTCLDY    74  68  81 E3        30.05R
DAYTON         PTCLDY    77  71  82 S6        30.06R
WRIGHT-PAT AFB PTCLDY    75  70  84 SW3       30.04R
DAYTON GENERAL PTCLDY    72  66  81 S6        30.05R
WILMINGTON     PTCLDY    70  65  84 SW6       30.06R
$$

OHZ036-037-039>041-045>050-054>059-063>069-073>076-082>088-030300-
  CENTRAL AND SOUTHEAST OHIO

CITY           SKY/WX    TMP DP  RH WIND       PRES   REMARKS
COLUMBUS       PTCLDY    74  68  81 CALM      30.04R
OSU AIRPORT    MOCLDY    74  67  78 NW10G18   30.07R
BOLTON FIELD   CLOUDY    73  71  93 S3        30.06R
RICKENBACK AFB MOCLDY    70  68  94 N5        30.04R
NEWARK         MOCLDY    75  67  76 SW9       30.04R
MARION         CLOUDY    71  66  84 SW14      30.05R
LANCASTER      CLEAR     69  66  90 CALM      30.04R
ZANESVILLE     MOCLDY    74  65  73 NW7       30.04R
NEW PHILLY     MOCLDY    72  69  90 CALM      30.02R
$$



USA.gov is the U.S. government's official web portal to all federal, state and local government web resources and services.